Regional Weather Roundup
Issued by NWS

Home | Current Version | Previous Version | Graphics & Text | Print | Product List | Glossary Off
Versions: 1 2 3 4 5 6 7 8 9 10 11 12 13 14 15 16 17 18 19 20 21 22 23 24 25 26 27 28 29 30 31 32 33 34 35 36 37 38 39 40 41 42 43 44 45 46 47 48 49 50

000
ASUS43 KMKX 201700
RWRWI

WISCONSIN REGIONAL WEATHER ROUNDUP
NATIONAL WEATHER SERVICE MILWAUKEE/SULLIVAN WI
1200 PM CDT SUN MAY 20 2018

NOTE: "FAIR" INDICATES FEW OR NO CLOUDS BELOW 12,000 FEET WITH NO
SIGNIFICANT WEATHER AND/OR OBSTRUCTIONS TO VISIBILITY.

WIZ001-002-006>008-014>016-023>028-201800-
NORTHWEST WISCONSIN

CITY           SKY/WX    TMP DP  RH WIND       PRES   REMARKS
SUPERIOR ARPT  FAIR      58  34  39 CALM      30.29F
ASHLAND        FAIR      60  32  34 N12       30.29S
HAYWARD        FAIR      62  27  26 E10       30.26F
SIREN          FAIR      61  23  23 CALM      30.26F
CUMBERLAND     FAIR      57  27  30 E3        30.25F
RICE LAKE      FAIR      60  24  25 E3        30.27F
CHETEK         FAIR      59  30  32 E9        30.26S
LADYSMITH      FAIR      60  28  29 NE5       30.27F
EAU CLAIRE     FAIR      60  37  42 E10       30.24S
MENOMONIE      FAIR      62  36  37 E9        30.25S
NEW RICHMOND   FAIR      61  21  21 E14       30.24S
OSCEOLA        FAIR      63  26  24 E10       30.28S
$$

WIZ003>005-009-010-017-018-201800-
NORTH CENTRAL WISCONSIN

CITY           SKY/WX    TMP DP  RH WIND       PRES   REMARKS
MANITOWISH WTR FAIR      60  28  29 N10       30.26F
ARBOR VITAE    FAIR      62  28  27 SE8G17    30.26S
WOODRUFF       FAIR      62  28  27 SE8G17    30.26S
RHINELANDER    FAIR      61  28  28 VRB5      30.26F
EAGLE RIVER    FAIR      60  24  25 CALM      30.26S
LAND O LAKES   FAIR      61  26  27 E5        30.28S
PHILLIPS       FAIR      60  30  32 NE6       30.26S
TOMAHAWK       FAIR      57  27  31 E5        30.27S
MEDFORD        FAIR      57  28  32 E5        30.25S
MERRILL        FAIR      59  29  31 E5        30.26S
$$

WIZ029-030-035-036-043>047-201800-
CENTRAL WISCONSIN

CITY           SKY/WX    TMP DP  RH WIND       PRES   REMARKS
WAUSAU         FAIR      59  29  31 E7        30.24R
MOSINEE        MOSUNNY   59  34  38 E7        30.26S
MARSHFIELD     FAIR      60  41  49 E13       30.23F
STEVENS POINT  NOT AVBL
WAUPACA        FAIR      59  42  52 SE5       30.26S
WAUTOMA        CLOUDY    54  44  69 E7        30.25F
WISC RAPIDS    FAIR      62  41  46 E6        30.24F
CAMP DOUGLAS   PTSUNNY   52  46  82 E7        30.25R
$$

WIZ011>013-019>022-031-037>040-048>050-201800-
NORTHEAST WISCONSIN

CITY           SKY/WX    TMP DP  RH WIND       PRES   REMARKS
ANTIGO         FAIR      57  29  34 SE7       30.26S
SHAWANO        FAIR      60  32  34 E7        30.26F
OCONTO         FAIR      55  38  53 SE5       30.27S
STURGEON BAY   FAIR      51  36  56 N8        30.27S
GREEN BAY      FAIR      55  38  52 NE14      30.27S
MANITOWOC      PTSUNNY   52  41  66 NE8       30.26F
APPLETON       PTSUNNY   55  39  54 NE6       30.24F
CLINTONVILLE   FAIR      58  34  40 NE8       30.26S
OSHKOSH        CLOUDY    53  45  74 NE9       30.25S
$$

WIZ032>034-041-042-053>061-201800-
SOUTHWEST WISCONSIN

CITY           SKY/WX    TMP DP  RH WIND       PRES   REMARKS
LA CROSSE      CLOUDY    51  48  89 E5        30.24S FOG
SPARTA         CLOUDY    51  46  83 E7        30.25S
VIROQUA        CLOUDY    49  48  95 NE8       30.23R
BOSCOBEL       CLOUDY    54  49  83 NE7       30.22S
PRAIRIE DU CHI CLOUDY    53  49  87 NE6       30.21R
PLATTEVILLE    CLOUDY    54  52  95 E13       30.19S
$$

WIZ056-057-062-063-064-067-068-201800-
SOUTH CENTRAL WISCONSIN

CITY           SKY/WX    TMP DP  RH WIND       PRES   REMARKS
REEDSBURG      CLOUDY    51  46  80 E7        30.24R
BARABOO/DELLS  CLOUDY    51  44  79 NE7       30.24R
LONE ROCK      CLOUDY    53  49  86 E12       30.23R
MINERAL POINT  CLOUDY    50  50 100 NE12      30.20S
MADISON        CLOUDY    50  46  86 E8        30.23R
MIDDLETON      CLOUDY    52  48  84 E9        30.23S
WATERTOWN      CLOUDY    49  47  95 NE6       30.23S
MONROE         CLOUDY    48  46  93 NE10      30.21R
JANESVILLE     CLOUDY    52  48  87 NE12      30.21F
$$

WIZ051-052-058>065-066-070>072-201800-
SOUTHEAST WISCONSIN

CITY           SKY/WX    TMP DP  RH WIND       PRES   REMARKS
MILWAUKEE      LGT RAIN  43  41  93 N16G24    30.23F
WAUKESHA       PTSUNNY   46  43  87 NE8       30.24F
MILWAUKEE/TIMM DRIZZLE   45  37  76 NE10      30.25F
RACINE         LGT RAIN  43  41  93 NE20G25   30.24F FOG
BURLINGTON     CLOUDY    45  43  92 NE8       30.24R
KENOSHA        LGT RAIN  45  41  86 NE12G22   30.23F
FOND DU LAC    CLOUDY    52  44  74 N10       30.24F
SHEBOYGAN      PTSUNNY   50  43  77 NE9G17    30.25F
WEST BEND      PTSUNNY   48  43  81 E10       30.24S
JUNEAU         CLOUDY    51  45  80 NE6       30.24S
$$

LSZ147-162-201800-
LAKE SUPERIOR

STATION/POSITION TIME  TEMP    WIND        PRES    WAVE
                       AIR SEA DIR/SP/G            HT/PER
                 (UTC) (F)     (DEG/KT/KT) (MB)    (FT/S)
W MID LAKE BUOY  1550   38 36  250/  6/  6 1026.4S   1/ 5
DEVILS ISLAND    1600   44     260/  3/  5 1026.7S
SAXON HARBOR     1640   44      30/  5/  6 1025.4S
$$

LMZ867-665-643>646-201800-
LAKE MICHIGAN

STATION/POSITION TIME  TEMP    WIND        PRES    WAVE
                       AIR SEA DIR/SP/G            HT/PER
                 (UTC) (F)     (DEG/KT/KT) (MB)    (FT/S)
NORTHPORT PIER   1640   46                 1024.7S
KEWAUNEE LAKESHO 1630   46      60/  5/  9 1024.4R
SHEBOYGAN LAKESH 1600   42      20/ 15/ 17 1025.4R
PORT WASHINGTON  1640   46      50/ 16/ 19 1025.1F
MILWAUKEE LAKESH 1640   42      20/ 17/ 20   N/A
KENOSHA   LAKESH 1600   42                 1024.0
$$

TC  - TEMPERATURE IN CELSIUS
VSB - VISIBILITY IN STATUTE MILES
WCI - WIND CHILL INDEX
HX  - HEAT INDEX




USA.gov is the U.S. government's official web portal to all federal, state and local government web resources and services.